Time,TemperatureF,DewpointF,PressureIn,WindDirection,WindDirectionDegrees,WindSpeedMPH,WindSpeedGustMPH,Humidity,HourlyPrecipIn,Conditions,Clouds,dailyrainin,SoftwareType,DateUTC
2013-05-10 00:03:00,58.0,56.0,-100.00,North,-999,-999.0,-999.0,93,0.00,,,0.33,,2013-05-10 04:03:00,
2013-05-10 00:12:00,58.0,56.0,-100.00,North,-999,-999.0,-999.0,93,0.00,,,0.33,,2013-05-10 04:12:00,
2013-05-10 00:23:00,58.0,56.0,-100.00,North,-999,-999.0,-999.0,93,0.00,,,0.33,,2013-05-10 04:23:00,
2013-05-10 00:33:00,58.0,56.0,-100.00,North,-999,-999.0,-999.0,93,0.00,,,0.33,,2013-05-10 04:33:00,
2013-05-10 00:43:00,58.0,56.0,-100.00,North,-999,-999.0,-999.0,93,0.00,,,0.33,,2013-05-10 04:43:00,
2013-05-10 01:02:00,58.0,56.0,-100.00,North,-999,-999.0,-999.0,93,0.00,,,0.33,,2013-05-10 05:02:00,
2013-05-10 01:12:00,58.0,56.0,-100.00,North,-999,-999.0,-999.0,93,0.00,,,0.33,,2013-05-10 05:12:00,
2013-05-10 01:22:00,58.0,56.0,-100.00,North,-999,-999.0,-999.0,93,0.00,,,0.33,,2013-05-10 05:22:00,
2013-05-10 01:32:00,58.0,56.0,-100.00,North,-999,-999.0,-999.0,93,0.00,,,0.33,,2013-05-10 05:32:00,
2013-05-10 01:42:00,58.0,56.0,-100.00,North,-999,-999.0,-999.0,93,0.00,,,0.33,,2013-05-10 05:42:00,
2013-05-10 02:02:00,58.0,56.0,-100.00,North,-999,0.0,-999.0,93,0.00,,,0.33,,2013-05-10 06:02:00,
2013-05-10 02:12:00,58.0,56.0,-100.00,North,-999,0.0,-999.0,93,0.00,,,0.33,,2013-05-10 06:12:00,
2013-05-10 02:22:00,58.0,56.0,-100.00,North,-999,0.0,-999.0,93,0.00,,,0.33,,2013-05-10 06:22:00,
2013-05-10 02:30:00,58.0,56.0,-100.00,North,-999,0.0,-999.0,93,0.00,,,0.22,,2013-05-10 06:30:00,
2013-05-10 02:32:00,58.0,56.0,-100.00,North,-999,0.0,-999.0,93,0.00,,,0.33,,2013-05-10 06:32:00,
2013-05-10 02:42:00,58.0,56.0,-100.00,North,-999,0.0,-999.0,93,0.00,,,0.33,,2013-05-10 06:42:00,
2013-05-10 03:02:00,58.0,56.0,-100.00,North,-999,0.0,-999.0,93,0.00,,,0.22,,2013-05-10 07:02:00,
2013-05-10 03:12:00,58.0,56.0,-100.00,North,-999,0.0,-999.0,93,0.00,,,0.22,,2013-05-10 07:12:00,
2013-05-10 03:22:00,58.0,56.0,-100.00,North,-999,0.0,-999.0,93,0.00,,,0.22,,2013-05-10 07:22:00,
2013-05-10 04:02:00,57.0,55.0,-100.00,North,-999,0.0,-999.0,94,-99.99,,,0.21,,2013-05-10 08:02:00,
2013-05-10 04:12:00,57.0,55.0,-100.00,North,-999,0.0,-999.0,94,-99.99,,,0.21,,2013-05-10 08:12:00,
2013-05-10 04:22:00,57.0,55.0,-100.00,North,-999,0.0,-999.0,94,-99.99,,,0.21,,2013-05-10 08:22:00,
2013-05-10 04:32:00,57.0,55.0,-100.00,North,-999,0.0,-999.0,94,-99.99,,,0.21,,2013-05-10 08:32:00,
2013-05-10 04:42:00,57.0,55.0,-100.00,North,-999,0.0,-999.0,94,-99.99,,,0.21,,2013-05-10 08:42:00,
2013-05-10 05:02:00,57.0,55.0,-100.00,North,1,0.0,-999.0,94,0.00,,,0.21,,2013-05-10 09:02:00,
2013-05-10 05:11:00,57.0,55.0,-100.00,North,1,0.0,-999.0,94,0.00,,,0.21,,2013-05-10 09:11:00,
2013-05-10 05:21:00,57.0,55.0,-100.00,North,1,0.0,-999.0,94,0.00,,,0.21,,2013-05-10 09:21:00,
2013-05-10 05:33:00,57.0,55.0,-100.00,North,1,0.0,-999.0,94,0.00,,,0.21,,2013-05-10 09:33:00,
2013-05-10 05:43:00,57.0,55.0,-100.00,North,1,0.0,-999.0,94,0.00,,,0.21,,2013-05-10 09:43:00,
2013-05-10 06:03:00,57.0,55.0,-100.00,North,-999,0.0,-999.0,94,0.00,,,0.21,,2013-05-10 10:03:00,
2013-05-10 06:12:00,57.0,55.0,-100.00,North,-999,0.0,-999.0,94,0.00,,,0.21,,2013-05-10 10:12:00,
2013-05-10 06:23:00,57.0,55.0,-100.00,North,-999,0.0,-999.0,94,0.00,,,0.21,,2013-05-10 10:23:00,
2013-05-10 06:32:00,57.0,55.0,-100.00,North,-999,0.0,-999.0,94,0.00,,,0.21,,2013-05-10 10:32:00,
2013-05-10 06:42:00,57.0,55.0,-100.00,North,-999,0.0,-999.0,94,0.00,,,0.21,,2013-05-10 10:42:00,
2013-05-10 07:02:00,58.0,56.0,-100.00,North,1,0.0,-999.0,93,0.00,,,0.21,,2013-05-10 11:02:00,
2013-05-10 07:12:00,58.0,56.0,-100.00,North,1,0.0,-999.0,93,0.00,,,0.21,,2013-05-10 11:12:00,
2013-05-10 07:22:00,58.0,56.0,-100.00,North,1,0.0,-999.0,93,0.00,,,0.21,,2013-05-10 11:22:00,
2013-05-10 07:32:00,58.0,56.0,-100.00,North,1,0.0,-999.0,93,0.00,,,0.21,,2013-05-10 11:32:00,
2013-05-10 07:42:00,58.0,56.0,-100.00,North,1,0.0,-999.0,93,0.00,,,0.21,,2013-05-10 11:42:00,
2013-05-10 08:02:00,59.0,56.0,-100.00,North,-999,-999.0,-999.0,89,0.00,,,0.21,,2013-05-10 12:02:00,
2013-05-10 08:12:00,59.0,56.0,-100.00,North,-999,-999.0,-999.0,89,0.00,,,0.21,,2013-05-10 12:12:00,
2013-05-10 08:22:00,59.0,56.0,-100.00,North,-999,-999.0,-999.0,89,0.00,,,0.21,,2013-05-10 12:22:00,
2013-05-10 08:32:00,59.0,56.0,-100.00,North,-999,-999.0,-999.0,89,0.00,,,0.21,,2013-05-10 12:32:00,
2013-05-10 08:42:00,59.0,56.0,-100.00,North,-999,-999.0,-999.0,89,0.00,,,0.21,,2013-05-10 12:42:00,
2013-05-10 09:01:00,60.0,55.0,-100.00,North,1,0.0,-999.0,84,0.00,,,0.21,,2013-05-10 13:01:00,
2013-05-10 09:11:00,60.0,55.0,-100.00,North,1,0.0,-999.0,84,0.00,,,0.21,,2013-05-10 13:11:00,
2013-05-10 09:21:00,60.0,55.0,-100.00,North,1,0.0,-999.0,84,0.00,,,0.21,,2013-05-10 13:21:00,
2013-05-10 09:30:00,63.0,56.0,-100.00,North,-999,-999.0,-999.0,77,0.01,,,0.22,,2013-05-10 13:30:00,
2013-05-10 09:32:00,60.0,55.0,-100.00,North,1,0.0,-999.0,84,0.00,,,0.21,,2013-05-10 13:32:00,
2013-05-10 09:42:00,60.0,55.0,-100.00,North,1,0.0,-999.0,84,0.00,,,0.21,,2013-05-10 13:42:00,
2013-05-10 10:02:00,63.0,56.0,-100.00,North,-999,-999.0,-999.0,77,0.01,,,0.22,,2013-05-10 14:02:00,
2013-05-10 10:11:00,63.0,56.0,-100.00,North,-999,-999.0,-999.0,77,0.01,,,0.22,,2013-05-10 14:11:00,
2013-05-10 10:21:00,63.0,56.0,-100.00,North,-999,-999.0,-999.0,77,0.01,,,0.22,,2013-05-10 14:21:00,
2013-05-10 11:02:00,67.0,56.0,-100.00,North,-999,0.0,-999.0,68,-99.99,,,0.22,,2013-05-10 15:02:00,
2013-05-10 11:20:00,-999.0,-99.9,-100.00,North,-999,0.0,-999.0,68,-99.99,,,0.22,,2013-05-10 15:20:00,
2013-05-10 11:32:00,67.0,56.0,-100.00,North,-999,0.0,-999.0,68,-99.99,,,0.22,,2013-05-10 15:32:00,
2013-05-10 11:42:00,67.0,56.0,-100.00,North,-999,0.0,-999.0,68,-99.99,,,0.22,,2013-05-10 15:42:00,
2013-05-10 12:02:00,72.0,49.0,-100.00,North,-999,-999.0,-999.0,45,0.00,,,0.22,,2013-05-10 16:02:00,
2013-05-10 12:12:00,72.0,49.0,-100.00,North,-999,-999.0,-999.0,45,0.00,,,0.22,,2013-05-10 16:12:00,
2013-05-10 12:23:00,72.0,49.0,-100.00,North,-999,-999.0,-999.0,45,0.00,,,0.22,,2013-05-10 16:23:00,
2013-05-10 12:33:00,72.0,49.0,-100.00,North,-999,-999.0,-999.0,45,0.00,,,0.22,,2013-05-10 16:33:00,
2013-05-10 12:43:00,72.0,49.0,-100.00,North,-999,-999.0,-999.0,45,0.00,,,0.22,,2013-05-10 16:43:00,
2013-05-10 13:02:00,76.0,46.0,-100.00,North,-999,-999.0,-999.0,35,0.00,,,0.22,,2013-05-10 17:02:00,
2013-05-10 13:12:00,76.0,46.0,-100.00,North,-999,-999.0,-999.0,35,0.00,,,0.22,,2013-05-10 17:12:00,
2013-05-10 13:22:00,76.0,46.0,-100.00,North,-999,-999.0,-999.0,35,0.00,,,0.22,,2013-05-10 17:22:00,
2013-05-10 13:32:00,76.0,46.0,-100.00,North,-999,-999.0,-999.0,35,0.00,,,0.22,,2013-05-10 17:32:00,
2013-05-10 13:42:00,76.0,46.0,-100.00,North,-999,-999.0,-999.0,35,0.00,,,0.22,,2013-05-10 17:42:00,
2013-05-10 14:11:00,-999.0,-99.9,-100.00,North,-999,0.0,-999.0,33,0.00,,,-99.99,,2013-05-10 18:11:00,
2013-05-10 14:22:00,80.0,48.0,-100.00,North,-999,0.0,-999.0,33,0.00,,,-99.99,,2013-05-10 18:22:00,
2013-05-10 14:30:00,71.0,56.0,-100.00,North,-999,0.0,-999.0,59,0.00,,,-99.99,,2013-05-10 18:30:00,
2013-05-10 14:34:00,80.0,48.0,-100.00,North,-999,0.0,-999.0,33,0.00,,,-99.99,,2013-05-10 18:34:00,
2013-05-10 14:43:00,80.0,48.0,-100.00,North,-999,0.0,-999.0,33,0.00,,,-99.99,,2013-05-10 18:43:00,
2013-05-10 15:02:00,71.0,56.0,-100.00,North,-999,0.0,-999.0,59,0.00,,,-99.99,,2013-05-10 19:02:00,
2013-05-10 15:11:00,71.0,56.0,-100.00,North,-999,0.0,-999.0,59,0.00,,,-99.99,,2013-05-10 19:11:00,
2013-05-10 15:21:00,71.0,56.0,-100.00,North,-999,0.0,-999.0,59,0.00,,,-99.99,,2013-05-10 19:21:00,
2013-05-10 16:02:00,78.0,55.0,-100.00,North,-999,0.0,-999.0,45,-99.99,,,0.02,,2013-05-10 20:02:00,
2013-05-10 16:12:00,78.0,55.0,-100.00,North,-999,0.0,-999.0,45,-99.99,,,0.02,,2013-05-10 20:12:00,
2013-05-10 16:22:00,78.0,55.0,-100.00,North,-999,0.0,-999.0,45,-99.99,,,0.02,,2013-05-10 20:22:00,
2013-05-10 16:32:00,78.0,55.0,-100.00,North,-999,0.0,-999.0,45,-99.99,,,0.02,,2013-05-10 20:32:00,
2013-05-10 16:42:00,78.0,55.0,-100.00,North,-999,0.0,-999.0,45,-99.99,,,0.02,,2013-05-10 20:42:00,
2013-05-10 17:02:00,78.0,54.0,-100.00,North,-999,-999.0,-999.0,44,0.00,,,0.01,,2013-05-10 21:02:00,
2013-05-10 17:11:00,78.0,54.0,-100.00,North,-999,-999.0,-999.0,44,0.00,,,0.01,,2013-05-10 21:11:00,
2013-05-10 17:25:00,78.0,54.0,-100.00,North,-999,-999.0,-999.0,44,0.00,,,0.01,,2013-05-10 21:25:00,
2013-05-10 17:32:00,78.0,54.0,-100.00,North,-999,-999.0,-999.0,44,0.00,,,0.01,,2013-05-10 21:32:00,
2013-05-10 17:43:00,78.0,54.0,-100.00,North,-999,-999.0,-999.0,44,0.00,,,0.01,,2013-05-10 21:43:00,
2013-05-10 19:02:00,71.0,56.0,-100.00,North,-999,0.0,-999.0,59,-99.99,,,0.01,,2013-05-10 23:02:00,
2013-05-10 19:12:00,71.0,56.0,-100.00,North,-999,0.0,-999.0,59,-99.99,,,0.01,,2013-05-10 23:12:00,
2013-05-10 19:22:00,71.0,56.0,-100.00,North,-999,0.0,-999.0,59,-99.99,,,0.01,,2013-05-10 23:22:00,
2013-05-10 19:33:00,71.0,56.0,-100.00,North,-999,0.0,-999.0,59,-99.99,,,0.01,,2013-05-10 23:33:00,
2013-05-10 19:42:00,71.0,56.0,-100.00,North,-999,0.0,-999.0,59,-99.99,,,0.01,,2013-05-10 23:42:00,
2013-05-10 20:02:00,69.0,54.0,-100.00,North,-999,-999.0,-999.0,59,0.00,,,0.01,,2013-05-11 00:02:00,
2013-05-10 20:11:00,69.0,54.0,-100.00,North,-999,-999.0,-999.0,59,0.00,,,0.01,,2013-05-11 00:11:00,
2013-05-10 20:22:00,69.0,54.0,-100.00,North,-999,-999.0,-999.0,59,0.00,,,0.01,,2013-05-11 00:22:00,
2013-05-10 20:32:00,69.0,54.0,-100.00,North,-999,-999.0,-999.0,59,0.00,,,0.01,,2013-05-11 00:32:00,
2013-05-10 20:42:00,69.0,54.0,-100.00,North,-999,-999.0,-999.0,59,0.00,,,0.01,,2013-05-11 00:42:00,
2013-05-10 21:01:00,66.0,52.0,-100.00,North,-999,0.0,-999.0,61,0.00,,,0.01,,2013-05-11 01:01:00,
2013-05-10 21:11:00,66.0,52.0,-100.00,North,-999,0.0,-999.0,61,0.00,,,0.01,,2013-05-11 01:11:00,
2013-05-10 21:21:00,66.0,52.0,-100.00,North,-999,0.0,-999.0,61,0.00,,,0.01,,2013-05-11 01:21:00,
2013-05-10 21:32:00,66.0,52.0,-100.00,North,-999,0.0,-999.0,61,0.00,,,0.01,,2013-05-11 01:32:00,
2013-05-10 21:42:00,66.0,52.0,-100.00,North,-999,0.0,-999.0,61,0.00,,,0.01,,2013-05-11 01:42:00,
2013-05-10 22:02:00,64.0,53.0,-100.00,North,-999,0.0,-999.0,68,0.00,,,0.01,,2013-05-11 02:02:00,
2013-05-10 22:11:00,64.0,53.0,-100.00,North,-999,0.0,-999.0,68,0.00,,,0.01,,2013-05-11 02:11:00,
2013-05-10 22:22:00,64.0,53.0,-100.00,North,-999,0.0,-999.0,68,0.00,,,0.01,,2013-05-11 02:22:00,
2013-05-10 22:32:00,64.0,53.0,-100.00,North,-999,0.0,-999.0,68,0.00,,,0.01,,2013-05-11 02:32:00,
2013-05-10 22:42:00,64.0,53.0,-100.00,North,-999,0.0,-999.0,68,0.00,,,0.01,,2013-05-11 02:42:00,
2013-05-10 23:01:00,62.0,54.0,-100.00,North,-999,-999.0,-999.0,75,0.00,,,0.01,,2013-05-11 03:01:00,
2013-05-10 23:11:00,62.0,54.0,-100.00,North,-999,-999.0,-999.0,75,0.00,,,0.01,,2013-05-11 03:11:00,
2013-05-10 23:21:00,62.0,54.0,-100.00,North,-999,-999.0,-999.0,75,0.00,,,0.01,,2013-05-11 03:21:00,
2013-05-10 23:33:00,62.0,54.0,-100.00,North,-999,-999.0,-999.0,75,0.00,,,0.01,,2013-05-11 03:33:00,
2013-05-10 23:42:00,62.0,54.0,-100.00,North,-999,-999.0,-999.0,75,0.00,,,0.01,,2013-05-11 03:42:00,